Showing default

DSN-3, 61733

Orbit data source: Space-Track

DSN-3, 61733 is a payload satellite owned by DSN Corp. (JP) in GEO that was launched on Mon, 04 Nov 2024 UTC via a H3-22S launch vehicle from the Tanegashima Space Center (TNSTA). Payload-class satellites include a variety of spacecraft equipped with specific instruments for various scientific and technological missions. These include communications satellites like Starlink; space stations such as the ISS; scientific satellites like the Hubble; Earth observation satellites from companies like Planet Labs, Umbra, and HawkEye 360; GPS; miniature CubeSats for education and research; and military/defense satellites.

Not visible in the next 10 days
Identifier
61733, 2024-198A
Orbit
GEO
Country
Flag of JPJP / JPN
Related business
Manufacturer
MELCO/NECST
Mission
Operational Defense Communications
Bus & Motor
DS-2000, R-4D
Mass
5,000 kg wet, 2,500 kg dry
Launch date (UTC)
2024-11-04 (1 year ago)
Launch vehicle
H3-22S
Launch site
Tanegashima Space Center (TNSTA)
Object type
Payload
Rocket body
Debris
Shape & HBR
Box + 2 Pan, 15.0 m
Radar Cross Section
67.841 m², Large (>1 m²)

Expand to show TLE details & history
Last TLE update: 7 hours ago

TLE from 7 hours ago
0 DSN-3
1 61733U 24198A   25351.56613573 -.00000225  00000-0  00000-0 0  9996
2 61733   0.0180 327.5720 0001200 332.8214 133.9285  1.00270955  4096
Epoch: 2025-12-17T13:35Z
TLE epoch observation values (Epoch: 2025-12-17T13:35:14.127Z)
Latitude
0.0426°
Longitude
144.0765°
Altitude
35,789.844 km
Speed
3.074 km/s
True Right ascension
04h 57m 16s
True Declination
0° 02' 33"
Sunlit
Object was in daylight at epoch
Visualization orbit readout
Latitude
Unknown
Longitude
Unknown
Altitude
Unknown
Speed
Unknown
Apparent Right ascension
Unknown
Apparent Declination
Unknown
Sunlit
N/A
Visualization observer readout
Local Sidereal Time
19:13:12
Azimuth
Unknown
Elevation
Unknown
Doppler factor
Unknown
Orbital elements
Apogee altitude
35,792.958 km
Perigee altitude
35,782.838 km
Semi-major axis
42,166.035 km
Eccentricity
0.00012
Inclination
0.018°
RAAN
327.572°
Arg. of periapsis
332.8214°
True anomaly
133.9384°
Mean anomaly
133.9285°
Eccentric anomaly
133.93345°
Mean motion
0.25067 °/min
Orbital period
1,436.16 mins
BSTAR
0
Loading maneuver chart data...
Computing Atmospheric mass density...
Loading historical data...
Loading historical data...
Loading historical data...
Loading historical data...
Loading historical data...
Loading historical data...
Loading historical data...
Other satellites on launch #198 in the year 2024 (2024-11-04 UTC)

Documentation

Showing up to 5 results
|